Weather History for KNJM - May, 2014

Change the Weather History Date:

Tuesday, May 27, 2014

  Actual Average (KNKT) Record (KNKT)
Temperature  
Mean Temperature 76 °F -  
Max Temperature 80 °F 80 °F 93 °F (2004)
Min Temperature 71 °F 60 °F 48 °F (2013)
Cooling Degree Days 10    
Growing Degree Days 26 (Base 50)    
Moisture  
Dew Point 68 °F    
Average Humidity 80    
Maximum Humidity 87    
Minimum Humidity 71    
Precipitation  
Precipitation 0.04 in - - ()
Sea Level Pressure  
Sea Level Pressure 30.08 in    
Wind  
Wind Speed 12 mph (WSW)    
Max Wind Speed 20 mph    
Max Gust Speed 29 mph    
Visibility 10 miles    
Events Rain , Thunderstorm    
Averages and records for this station are not official NWS values.
T = Trace of Precipitation, MM = Missing Value Source: NWS Daily Summary

Daily Weather History Graph

Daily Weather History Graph

Search for Another Location

Airport or City:

Trip Planner

Search our weather history database for the weather conditions in past years. The results will help you decide how hot, cold, wet, or windy it might be!

Date:

Astronomy

May. 27, 2014 Rise Set
Actual Time 5:58 AM EDT 8:12 PM EDT
Civil Twilight 5:29 AM EDT 8:41 PM EDT
Nautical Twilight 4:54 AM EDT 9:16 PM EDT
Astronomical Twilight 4:15 AM EDT 9:55 PM EDT
Moon 5:14 AM EDT (5/27) 7:16 PM EDT (5/27)
Length of Visible Light 15h 12m
Length of Day
14h 14m
Waning Crescent, 1% of the Moon is Illuminated
May 27
Waning Crescent
May 28
New
Jun 5
First Quarter
Jun 13
Full
Jun 19
Last Quarter

Hourly Weather History & Observations

Time (EDT) Temp. Dew Point Humidity Pressure Visibility Wind Dir Wind Speed Gust Speed Precip Events Conditions
12:57 AM 73.0 °F 66.0 °F 79% 30.17 in 10.0 mi SW 10.4 mph 20.7 mph N/A   Clear
1:57 AM 73.0 °F 66.0 °F 79% 30.17 in 10.0 mi SW 12.7 mph - N/A   Clear
2:57 AM 72.0 °F 66.0 °F 81% 30.15 in 10.0 mi SW 11.5 mph - N/A   Clear
3:57 AM 72.0 °F 66.9 °F 84% 30.15 in 10.0 mi WSW 6.9 mph - N/A   Clear
4:57 AM 72.0 °F 66.9 °F 84% 30.14 in 10.0 mi SW 10.4 mph - N/A   Clear
5:57 AM 72.0 °F 66.9 °F 84% 30.14 in 10.0 mi SW 10.4 mph - N/A   Mostly Cloudy
6:57 AM 73.0 °F 66.9 °F 81% 30.15 in 10.0 mi SW 8.1 mph - N/A   Mostly Cloudy
7:57 AM 73.9 °F 68.0 °F 82% 30.15 in 10.0 mi SW 11.5 mph - N/A   Mostly Cloudy
8:57 AM 75.0 °F 66.9 °F 76% 30.14 in 10.0 mi SW 12.7 mph 24.2 mph N/A   Partly Cloudy
9:57 AM 77.0 °F 68.0 °F 74% 30.13 in 10.0 mi SW 13.8 mph 21.9 mph N/A   Scattered Clouds
10:57 AM 79.0 °F 69.1 °F 72% 30.12 in 10.0 mi SW 15.0 mph - N/A   Scattered Clouds
11:57 AM 79.0 °F 69.1 °F 72% 30.11 in 8.0 mi SW 16.1 mph 24.2 mph N/A   Scattered Clouds
12:57 PM 79.0 °F 69.1 °F 72% 30.10 in 10.0 mi SW 19.6 mph 28.8 mph N/A   Clear
1:57 PM 79.0 °F 69.1 °F 72% 30.08 in 10.0 mi SW 15.0 mph 28.8 mph N/A   Partly Cloudy
2:57 PM 79.0 °F 69.1 °F 72% 30.06 in 9.0 mi SSW 17.3 mph 24.2 mph N/A   Scattered Clouds
3:57 PM 79.0 °F 69.1 °F 72% 30.04 in 10.0 mi SW 15.0 mph 25.3 mph N/A   Scattered Clouds
4:57 PM 78.1 °F 68.0 °F 71% 30.01 in 10.0 mi SSW 18.4 mph 28.8 mph N/A   Clear
5:57 PM 77.0 °F 68.0 °F 74% 30.01 in 9.0 mi SW 15.0 mph 24.2 mph N/A   Clear
6:57 PM 75.0 °F 68.0 °F 79% 30.01 in 10.0 mi SW 15.0 mph 26.5 mph N/A   Clear
7:43 PM 75.0 °F 69.1 °F 82% 30.01 in 10.0 mi SW 13.8 mph 25.3 mph N/A Thunderstorm Thunderstorm
7:57 PM 75.0 °F 69.1 °F 82% 30.04 in 10.0 mi NW 11.5 mph 20.7 mph N/A Thunderstorm Mostly Cloudy
8:04 PM 75.0 °F 69.1 °F 82% 30.03 in 10.0 mi WNW 9.2 mph 19.6 mph N/A Thunderstorm Thunderstorm
8:49 PM 73.9 °F 69.1 °F 85% 30.01 in 9.0 mi SW 12.7 mph - 0.01 in Rain Light Rain
8:57 PM 73.9 °F 69.1 °F 85% 30.02 in 9.0 mi SW 10.4 mph - 0.01 in Rain Light Rain
9:57 PM 73.0 °F 69.1 °F 87% 30.04 in 9.0 mi SW 13.8 mph - 0.01 in   Clear
10:32 PM 73.9 °F 69.1 °F 85% 30.04 in 9.0 mi WSW 11.5 mph - N/A Thunderstorm Thunderstorm
10:45 PM 73.9 °F 69.1 °F 85% 30.03 in 10.0 mi West 6.9 mph 18.4 mph N/A Thunderstorm Thunderstorm
10:57 PM 73.9 °F 69.1 °F 85% 30.05 in 10.0 mi NW 8.1 mph - N/A Thunderstorm Thunderstorm
11:28 PM 72.0 °F 66.9 °F 84% 30.02 in 9.0 mi West 4.6 mph - 0.00 in Rain Light Rain
11:57 PM 71.1 °F 66.9 °F 87% 30.03 in 10.0 mi West 5.8 mph - 0.02 in Rain Light Rain